Location: Little Baddow
(51.7333°N, 0.5667°E)
Time: 17:29:12
(UTC+00:00)

Cosmos 1459 Rocket - Visible Passes

Search period start: 09 February 2026 00:00
Search period end: 19 February 2026 00:00
Orbit: 935 x 999 km, 83.0° (Epoch: 9 February)

Date Brightness Start Highest point End Pass type
(mag) Time Alt. Az. Time Alt. Az. Time Alt. Az.
9 Feb 7.2 04:46:19 10° E 04:47:16 10° ENE 04:48:13 10° ENE visible
9 Feb 4.7 06:25:13 10° S 06:31:05 57° E 06:37:02 10° NNE visible
9 Feb 6.1 18:59:21 10° NNW 19:04:28 28° W 19:09:38 10° SW visible
10 Feb 6.8 05:05:43 10° ESE 05:09:32 18° ENE 05:13:22 10° NE visible
10 Feb 4.1 17:36:20 10° N 17:42:34 87° W 17:48:52 10° S visible
10 Feb 6.8 19:22:58 10° NW 19:26:54 18° WNW 19:30:50 10° WSW visible
11 Feb 6.1 05:26:57 10° SE 05:31:57 28° E 05:36:59 10° NNE visible
11 Feb 4.8 17:59:17 10° NNW 18:05:20 56° W 18:11:26 10° SSW visible
11 Feb 7.3 19:48:00 10° WNW 19:49:10 11° WNW 19:50:19 10° W visible
12 Feb 5.2 05:48:49 10° SSE 05:54:29 44° E 06:00:13 10° NNE visible
12 Feb 5.8 18:22:24 10° NNW 18:27:58 36° W 18:33:34 10° SSW visible
13 Feb 7.0 04:30:22 10° ESE 04:33:07 13° ENE 04:35:55 10° NE visible
13 Feb 4.3 06:11:10 10° S 06:17:10 71° E 06:23:15 10° NNE visible
13 Feb 6.5 18:45:46 10° NNW 18:50:27 23° W 18:55:10 10° SW visible
14 Feb 6.4 04:50:59 10° SE 04:55:27 22° E 04:59:57 10° NNE visible
14 Feb 3.9 06:33:57 10° SSW 06:39:59 75° WNW 06:46:08 10° N visible
14 Feb 7.0 19:09:42 10° NW 19:12:48 14° WNW 19:15:54 10° WSW visible
15 Feb 5.6 05:12:33 10° SSE 05:17:55 35° E 05:23:21 10° NNE visible
15 Feb 5.3 17:45:31 10° NNW 17:51:25 45° W 17:57:21 10° SSW visible
16 Feb 4.7 05:34:40 10° SSE 05:40:31 55° E 05:46:29 10° NNE visible
16 Feb 6.2 18:08:43 10° NNW 18:13:58 29° W 18:19:15 10° SW visible
17 Feb 6.7 04:15:17 10° ESE 04:19:00 17° ENE 04:22:45 10° NE visible
17 Feb 4.0 05:57:13 10° S 06:03:17 87° E 06:09:27 10° N visible
17 Feb 6.8 18:32:17 10° NW 18:36:24 19° WNW 18:40:32 10° WSW visible
18 Feb 6.0 04:36:26 10° SE 04:41:24 27° E 04:46:25 10° NNE visible
18 Feb 4.0 06:20:11 10° SSW 06:26:10 61° WNW 06:32:16 10° N visible
18 Feb 7.2 18:56:57 10° NW 18:58:41 11° WNW 19:00:26 10° W visible
